CDT,Max TemperatureF,Mean TemperatureF,Min TemperatureF,Max Dew PointF,MeanDew PointF,Min DewpointF,Max Humidity, Mean Humidity, Min Humidity, Max Sea Level PressureIn, Mean Sea Level PressureIn, Min Sea Level PressureIn, Max VisibilityMiles, Mean VisibilityMiles, Min VisibilityMiles, Max Wind SpeedMPH, Mean Wind SpeedMPH, Max Gust SpeedMPH,PrecipitationIn, CloudCover, Events, WindDirDegrees
2011-10-1,59,46,33,39,34,30,93,71,36,30.37,30.30,30.25,10,10,10,8,4,,0.00,0,,3
2011-10-2,69,50,32,45,37,30,100,71,28,30.28,30.22,30.14,10,10,7,9,2,,0.00,0,,280
2011-10-3,71,56,41,50,45,41,100,71,35,30.28,30.22,30.16,10,10,2,7,2,,0.00,0,,28
2011-10-4,75,58,41,54,47,41,100,76,36,30.29,30.23,30.17,10,10,4,9,1,,0.00,0,,204
2011-10-5,78,60,41,52,47,39,100,72,30,30.23,30.20,30.15,10,8,1,9,2,,0.00,0,,158
2011-10-6,78,60,42,54,49,43,100,72,34,30.26,30.21,30.17,10,9,1,12,2,16,0.00,0,,161
2011-10-7,78,61,44,55,52,45,100,60,32,30.24,30.16,30.11,10,10,3,18,6,24,0.00,0,,181
2011-10-8,80,68,55,55,53,50,88,59,34,30.23,30.19,30.13,10,10,10,18,9,24,0.00,0,,192
2011-10-9,78,62,46,55,51,45,100,70,36,30.31,30.27,30.23,10,10,7,9,3,,0.00,0,,179
2011-10-10,77,60,44,55,50,45,100,73,34,30.25,30.14,30.03,10,8,0,15,3,20,0.00,0,Fog,141
2011-10-11,73,62,50,63,55,48,100,81,53,30.02,29.96,29.90,10,10,2,12,3,17,0.48,5,Rain,179
2011-10-12,73,62,51,61,55,52,100,84,53,29.91,29.82,29.70,10,4,0,10,2,,0.01,5,Fog,105
2011-10-13,59,56,53,57,53,52,100,91,82,29.66,29.53,29.43,10,8,2,16,5,26,0.31,8,Rain,56
2011-10-14,51,48,46,50,40,34,94,69,50,29.53,29.48,29.44,10,10,10,23,14,36,0.00,8,,289
2011-10-15,55,50,44,34,32,30,61,50,41,29.72,29.63,29.52,10,10,10,30,20,41,0.00,2,,295
2011-10-16,59,50,42,39,32,27,81,50,33,29.75,29.69,29.64,10,10,10,30,12,38,0.00,3,Rain,275
2011-10-17,57,50,42,32,31,28,66,52,36,29.71,29.67,29.66,10,10,10,23,16,31,0.00,0,,274
2011-10-18,51,44,37,37,34,32,87,64,50,29.94,29.84,29.75,10,10,10,10,6,18,0.00,7,,355
2011-10-19,50,42,35,37,35,32,93,76,58,29.95,29.91,29.85,10,10,10,21,9,30,0.00,5,Rain,12
2011-10-20,44,42,41,34,33,32,76,69,61,29.85,29.72,29.66,10,10,10,22,14,30,0.00,8,Rain,352
2011-10-21,53,43,33,34,33,32,93,72,44,30.03,29.98,29.87,10,10,10,10,5,,0.00,2,,281
2011-10-22,59,44,30,37,34,28,100,73,42,30.03,30.00,29.98,10,10,4,9,2,,0.00,0,,319
2011-10-23,53,42,30,46,38,28,100,90,67,30.00,29.88,29.76,10,9,2,10,2,,0.05,4,Rain,206
2011-10-24,59,48,37,41,36,32,100,72,36,30.05,29.95,29.84,10,10,10,18,8,26,0.00,0,,276
2011-10-25,46,44,39,43,40,32,100,88,61,30.07,29.98,29.88,10,9,4,15,7,25,0.16,8,Rain,60
2011-10-26,50,44,37,36,34,30,93,78,47,30.02,29.99,29.93,10,10,7,10,7,,0.00,6,Rain,13
2011-10-27,50,42,33,34,32,32,93,77,50,30.10,30.02,29.98,10,10,10,10,3,,0.00,5,Rain,322
2011-10-28,51,40,28,37,31,25,100,78,37,30.12,30.06,29.99,10,9,2,10,2,,0.00,3,Rain,208
2011-10-29,50,39,28,34,30,27,100,79,43,30.06,30.02,29.97,10,8,0,10,2,22,0.00,3,Fog,303
2011-10-30,48,37,26,41,32,25,100,87,57,30.07,29.96,29.84,10,9,5,17,3,22,0.06,5,Rain,131
2011-10-31,44,42,39,41,39,37,100,88,76,30.06,29.98,29.87,10,8,2,8,4,,0.00,8,,242